Regional Weather Roundup
Issued by NWS

Home | Current Version | Previous Version | Text Only | Print | Product List | Glossary Off
Versions: 1 2 3 4 5 6 7 8 9 10 11 12 13 14 15 16 17 18 19 20 21 22 23 24 25 26 27 28 29 30 31 32 33 34 35 36 37 38 39 40 41 42 43 44 45 46 47 48 49 50

000
ASUS45 KCYS 302310
RWRWY

WYOMING REGIONAL WEATHER ROUNDUP
NATIONAL WEATHER SERVICE CHEYENNE WY
500 PM MDT WED JUL 30 2014

NOTE:  "FAIR" INDICATES FEW OR NO CLOUDS BELOW 12,000 FEET
WITH NO SIGNIFICANT WEATHER AND/OR OBSTRUCTIONS TO VISIBILITY.

WYZ001-310000-
YELLOWSTONE NATIONAL PARK

CITY           SKY/WX    TMP DP  RH WIND       PRES   REMARKS
LK YELLOWSTONE   N/A     67  33  28 CALM      30.44F
W YELLOWSTONE  NOT AVBL

$$
WYZ002>013-054>058-071-098>099-310000-
NORTHERN WYOMING

CITY           SKY/WX    TMP DP  RH WIND       PRES   REMARKS
JACKSON        SUNNY     73  45  35 S13       30.33F
CODY           NOT AVBL
GREYBULL       PTSUNNY   85  37  18 CALM      30.17F
WORLAND        PTSUNNY   83  44  25 VRB5      30.20F
SHERIDAN       MOSUNNY   86  32  14 NE7       30.21F
BUFFALO        MOSUNNY   81  31  16 NE10      30.28F
GILLETTE       MOSUNNY   83  38  20 NE10G17   30.22F
HULETT         FAIR      81  37  21 MISG      30.24
NEWCASTLE      FAIR      81  36  19 N13       30.21

$$
WYZ014>020-022>026-101>103-310000-
CENTRAL WYOMING

CITY           SKY/WX    TMP DP  RH WIND       PRES   REMARKS
BIG PINEY      CLOUDY    58  50  75 NW10      30.43F
PINEDALE       CLOUDY    61  46  59 W7        30.43S
DUBOIS         FAIR      68  34  28 E12       30.41F
LANDER         CLOUDY    72  44  36 NW7       30.31F
RIVERTON       CLOUDY    74  41  30 NE3       30.31F
CASPER         PTSUNNY   78  41  26 SE9       30.27F
DOUGLAS        MOSUNNY   78  44  29 S5        30.27F

$$
WYZ021-027>030-104>119-310000-
SOUTHERN WYOMING

CITY           SKY/WX    TMP DP  RH WIND       PRES   REMARKS
EVANSTON       CLOUDY    61  52  72 E14G23    30.39F
KEMMERER       CLOUDY   N/A N/A N/A NE15G21   30.43F
FORT BRIDGER   CLOUDY    61  56  84 NE8       30.43S
ROCK SPRINGS   CLOUDY    61  53  75 NE16      30.38F
DIXON          CLOUDY    67  52  57 E3        30.32F
RAWLINS        CLOUDY    63  49  60 E13       30.38S
SARATOGA       DRIZZLE   61  52  72 NE5       30.38S
LARAMIE        LGT RAIN  58  50  75 SE10      30.41R
CHEYENNE       CLOUDY    61  54  77 SW8       30.37F
TORRINGTON     PTSUNNY   76  45  33 S6        30.23F
PINE BLUFFS    MOCLDY    63  55  77 SW8       30.33F

$$


USA.gov is the U.S. government's official web portal to all federal, state and local government web resources and services.